Погода в Южно-Сухокумске

Россия / Республика Дагестан     44°39′36″N   45°38′59″E
темп.,
°C
ветер,
м/с
пор.,
м/с
влажн.,
%
обл.,
%
осадки,
мм/ч
давл.,
гПа
погр.,
м
26 июня, вс
вс2600:00+23вюв2356100 0.0 100866
03:00+22всв3360100 0.0 100840
06:00+24св3549100 0.0 1007202
09:00+29всв5630100 0.0 10071149
12:00+34в782498 0.0 10052584
15:00+33в9927100 0.0 10042608
18:00+31вюв673275 0.0 10041574
21:00+26вюв2247100 0.0 100634
27 июня, пн
пн2700:00+22з357395 1.0 1007101
03:00+24ссз4659100 1.1 1007118
06:00+26всв695215 0.0 10081039
09:00+29всв9104611 0.1 10091422
12:00+32всв1011330 0.0 10091888
15:00+32в11123014 0.0 10091805
18:00+30в9103115 0.0 10091123
21:00+26в4937100 0.1 1011353
28 июня, вт
вт2800:00+24св2450100 0.8 1011162
03:00+24ссв4838100 1.2 1011294
06:00+23ссв4639100 0.6 1011341
09:00+26с4432100 0.9 1011935
12:00+29с772352 0.7 10111426
15:00+30ссв98212 0.8 10111698
18:00+29ссв662316 0.0 10121546
21:00+24ссз47344 0.0 1013131
29 июня, ср
ср2900:00+23с333515 0.0 101243
03:00+22с4541100 0.0 101281
06:00+23ссв354125 0.0 1013182
09:00+28св453059 0.0 1013972
12:00+32всв44265 0.0 10122392
15:00+29в984360 0.0 10131744
18:00+27в874424 0.0 10131115
21:00+23вюв68604 0.0 1015485
30 июня, чт
чт3000:00+21вюв36644 0.0 1016302
03:00+20всв356225 0.0 1015119
06:00+22в455177 0.0 1015325
09:00+26в443328 0.0 10151524
12:00+28св54262 0.0 10142079
15:00+30св432141 0.0 10132315
18:00+28вюв5423100 0.0 10141457
21:00+24юв463884 0.0 1015194